FW9848 Weather Reports


time (UTC)temp
C
wind
direction
speed
KPH
gust
KPH
rain 1hr
cm
rain 24hr
cm
rain mn
cm
humidity
%
barometer
mb
20260510190059 31 0 0.0 0.0 0.00 0.00 0.00 59 1014.9
20260510184557 31 0 0.0 9.7 0.00 0.00 0.00 58 1015.0
20260510183053 30 0 1.6 8.0 0.00 0.00 0.00 61 1015.2
20260510181559 30 67 1.6 12.9 0.00 0.00 0.00 61 1015.5
20260510180056 30 0 0.0 0.0 0.00 0.00 0.00 63 1015.5
20260510174554 30 0 0.0 0.0 0.00 0.00 0.00 62 1015.7
20260510173050 30 0 0.0 0.0 0.00 0.00 0.00 62 1015.6
20260510171552 30 0 0.0 0.0 0.00 0.00 0.00 62 1015.6
20260510170056 29 0 0.0 0.0 0.00 0.00 0.00 66 1015.6
20260510164556 30 0 0.0 0.0 0.00 0.00 0.00 64 1015.5
20260510163055 30 0 0.0 0.0 0.00 0.00 0.00 64 1015.3
20260510161551 29 0 0.0 0.0 0.00 0.00 0.00 64 1015.4
20260510160053 28 0 0.0 0.0 0.00 0.00 0.00 67 1015.3
20260510154554 28 0 0.0 0.0 0.00 0.00 0.00 67 1015.2
20260510153054 28 0 0.0 0.0 0.00 0.00 0.00 65 1015.0
20260510151551 28 0 0.0 0.0 0.00 0.00 0.00 69 1014.9
20260510150057 27 0 0.0 0.0 0.00 0.00 0.00 70 1014.9
20260510144550 27 0 0.0 0.0 0.00 0.00 0.00 72 1014.7
20260510143048 26 0 0.0 0.0 0.00 0.00 0.00 76 1014.6
20260510141557 25 0 0.0 0.0 0.00 0.00 0.00 77 1014.6
20260510140056 25 0 0.0 0.0 0.00 0.00 0.00 79 1014.5
20260510134557 24 0 0.0 0.0 0.00 0.00 0.00 78 1014.6
20260510133058 23 0 0.0 0.0 0.00 0.00 0.00 79 1014.4
20260510131553 23 0 0.0 0.0 0.00 0.00 0.00 79 1014.2
20260510130053 23 0 0.0 1.6 0.00 0.00 0.00 81 1014.1
20260510124559 21 0 0.0 0.0 0.00 0.03 0.00 83 1013.9
20260510123049 20 0 0.0 0.0 0.00 0.03 0.00 78 1014.0
20260510121553 18 0 0.0 0.0 0.00 0.03 0.00 80 1013.7
20260510120048 18 0 0.0 0.0 0.00 0.03 0.00 81 1013.7
20260510114553 18 0 0.0 0.0 0.00 0.03 0.00 82 1013.7
20260510113053 19 0 0.0 0.0 0.00 0.03 0.00 83 1013.7
20260510111554 19 0 0.0 0.0 0.00 0.03 0.00 83 1013.5
20260510110052 19 0 0.0 0.0 0.00 0.03 0.00 83 1013.7
20260510104548 20 0 0.0 0.0 0.00 0.03 0.00 83 1013.6
20260510103058 20 0 0.0 0.0 0.00 0.03 0.00 83 1013.7
20260510101556 20 0 0.0 0.0 0.00 0.03 0.00 83 1013.7
20260510100050 20 0 0.0 0.0 0.00 0.03 0.00 83 1013.6
20260510094553 20 0 0.0 0.0 0.00 0.03 0.00 83 1013.5
20260510093056 20 0 0.0 0.0 0.00 0.03 0.00 82 1013.4
20260510091556 20 0 0.0 0.0 0.00 0.03 0.00 82 1013.2
20260510090055 20 0 0.0 0.0 0.00 0.03 0.00 82 1013.2
20260510084552 20 0 0.0 0.0 0.00 0.03 0.00 82 1013.2
20260510083053 21 0 0.0 0.0 0.00 0.03 0.00 81 1013.3
20260510081559 21 0 0.0 0.0 0.00 0.03 0.00 81 1013.2
20260510080053 21 0 0.0 0.0 0.00 0.03 0.00 79 1013.1
20260510074602 22 0 0.0 0.0 0.00 0.03 0.00 78 1013.0
20260510073103 22 0 0.0 0.0 0.00 0.03 0.00 77 1013.1
20260510071552 22 0 0.0 0.0 0.00 0.03 0.00 77 1013.3
20260510070052 23 0 0.0 0.0 0.00 0.03 0.00 76 1013.1
20260510064555 23 0 0.0 0.0 0.00 0.03 0.00 75 1013.2
20260510063055 23 0 0.0 0.0 0.00 0.03 0.00 74 1013.3
20260510061603 23 0 0.0 0.0 0.00 0.03 0.00 74 1013.3
20260510060057 24 0 0.0 0.0 0.00 0.03 0.00 74 1013.4
20260510054606 24 0 0.0 0.0 0.00 0.03 0.00 73 1013.3
20260510053052 24 0 0.0 0.0 0.00 0.03 0.00 73 1013.0
20260510051550 25 0 0.0 0.0 0.00 0.03 0.00 72 1012.8
20260510050055 25 0 0.0 0.0 0.00 0.03 0.00 70 1012.9
20260510044553 26 0 0.0 0.0 0.00 0.03 0.03 69 1012.7
20260510043051 26 0 0.0 0.0 0.00 0.03 0.03 67 1012.7
20260510041605 26 0 0.0 0.0 0.00 0.03 0.03 68 1012.6
20260510040053 26 0 0.0 0.0 0.00 0.03 0.03 67 1012.4
20260510034555 26 0 0.0 0.0 0.00 0.03 0.03 67 1012.3
20260510033055 26 0 0.0 0.0 0.00 0.03 0.03 66 1012.2
20260510031557 26 0 0.0 0.0 0.00 0.03 0.03 66 1012.1
20260510030053 27 0 0.0 0.0 0.00 0.03 0.03 65 1011.9
20260510024609 27 0 0.0 0.0 0.00 0.03 0.03 65 1011.8
20260510023058 27 0 0.0 0.0 0.00 0.03 0.03 64 1011.6
20260510021558 27 0 0.0 0.0 0.00 0.03 0.03 64 1011.4
20260510020056 27 0 0.0 0.0 0.00 0.03 0.03 63 1011.3
20260510014557 28 0 0.0 0.0 0.00 0.03 0.03 62 1010.9
20260510013101 28 0 0.0 0.0 0.00 0.03 0.03 60 1010.7
20260510011550 28 0 0.0 0.0 0.00 0.03 0.03 59 1010.4
20260510010053 29 0 0.0 0.0 0.00 0.03 0.03 58 1010.2
20260510004555 30 0 0.0 0.0 0.00 0.03 0.03 56 1010.0
20260510003056 31 0 0.0 0.0 0.00 0.03 0.03 55 1009.8
20260510001552 31 0 0.0 0.0 0.00 0.03 0.03 53 1009.9
20260510000049 32 0 0.0 0.0 0.00 0.03 0.03 51 1009.9
20260509234548 33 0 0.0 0.0 0.00 0.03 0.03 49 1010.0
20260509233053 33 0 0.0 0.0 0.00 0.03 0.03 49 1009.9
20260509231604 33 0 0.0 0.0 0.00 0.03 0.03 49 1009.9
20260509230055 33 0 0.0 0.0 0.00 0.03 0.03 45 1009.7
20260509224556 33 0 0.0 0.0 0.00 0.03 0.03 47 1009.8
20260509223104 33 0 0.0 0.0 0.00 0.03 0.03 44 1009.8
20260509221556 33 0 0.0 0.0 0.00 0.03 0.03 44 1009.9
20260509220058 33 0 0.0 0.0 0.00 0.03 0.03 46 1009.9
20260509214552 33 0 0.0 0.0 0.00 0.03 0.03 46 1009.8
20260509213055 33 0 0.0 0.0 0.00 0.03 0.03 48 1010.0
20260509211558 33 0 0.0 0.0 0.00 0.03 0.03 44 1010.3
20260509210105 33 0 0.0 0.0 0.00 0.03 0.03 46 1010.5
20260509204553 33 0 0.0 0.0 0.00 0.03 0.03 51 1010.6
20260509203054 33 0 0.0 3.2 0.00 0.03 0.03 49 1010.9
20260509201549 33 0 0.0 0.0 0.00 0.03 0.03 49 1011.3
20260509200054 32 0 0.0 0.0 0.00 0.03 0.03 53 1011.5
20260509194553 32 0 0.0 0.0 0.00 0.03 0.03 55 1011.9
20260509193052 32 0 0.0 0.0 0.00 0.03 0.03 56 1012.0
20260509191550 32 0 0.0 4.8 0.00 0.03 0.03 54 1012.1